QPF
0.00 0.00 0.01 0.01 0.01 0.00 0.01 0.01 0.01 0.01 0.01 0.01 0.00 0.00 0.00 0.00 0.00 0.00 0.00 0.00 0.00 0.01 0.02 0.03 0.04 0.05 0.03 0.01 0.00 0.00 0.00 0.00 0.00 0.00 0.00 0.00 0.00 0.00 0.00 0.00 0.00 0.00 0.00
0.00 0.00 0.01 0.01 0.01 0.00 0.00 0.00 0.01 0.01 0.01 0.01 0.00 0.00 0.00 0.00 0.00 0.00 0.00 0.00 0.01 0.02 0.04 0.05 0.05 0.04 0.02 0.01 0.00 0.00 0.00 0.00 0.00 0.00 0.00 0.00 0.00 0.00 0.00 0.00 0.00 0.00 0.00
0.00 0.00 0.01 0.01 0.01 0.00 0.00 0.00 0.00 0.01 0.01 0.01 0.00 0.00 0.00 0.00 0.00 0.00 0.00 0.00 0.01 0.02 0.03 0.03 0.03 0.02 0.01 0.00 0.00 0.00 0.00 0.00 0.00 0.00 0.00 0.00 0.00 0.00 0.00 0.00 0.00 0.00 0.00
0.00 0.00 0.00 0.01 0.00 0.00 0.00 0.00 0.00 0.00 0.01 0.01 0.00 0.00 0.00 0.00 0.00 0.00 0.00 0.00 0.00 0.01 0.01 0.01 0.01 0.00 0.00 0.00 0.00 0.00 0.00 0.00 0.00 0.00 0.00 0.00 0.00 0.00 0.00 0.00 0.00 0.00 0.00
0.00 0.00 0.00 0.00 0.00 0.00 0.00 0.00 0.00 0.00 0.01 0.01 0.00 0.00 0.00 0.00 0.00 0.00 0.00 0.00 0.00 0.00 0.00 0.00 0.00 0.00 0.00 0.00 0.00 0.00 0.00 0.00 0.00 0.00 0.00 0.00 0.00 0.00 0.00 0.00 0.00 0.00 0.00
0.00 0.00 0.00 0.00 0.00 0.00 0.00 0.00 0.00 0.00 0.01 0.01 0.00 0.00 0.00 0.00 0.00 0.00 0.00 0.00 0.00 0.00 0.00 0.00 0.00 0.00 0.00 0.00 0.00 0.00 0.00 0.00 0.00 0.00 0.00 0.00 0.00 0.01 0.01 0.01 0.01 0.01 0.02
0.00 0.00 0.00 0.00 0.00 0.00 0.00 0.00 0.00 0.00 0.01 0.00 0.00 0.00 0.00 0.00 0.00 0.00 0.00 0.00 0.00 0.00 0.00 0.00 0.00 0.00 0.00 0.00 0.00 0.00 0.00 0.00 0.00 0.00 0.00 0.00 0.00 0.01 0.02 0.01 0.02 0.03 0.03
0.00 0.00 0.00 0.00 0.00 0.00 0.00 0.00 0.00 0.00 0.01 0.00 0.00 0.00 0.00 0.00 0.00 0.00 0.00 0.00 0.00 0.00 0.00 0.00 0.00 0.00 0.00 0.00 0.00 0.00 0.00 0.00 0.00 0.00 0.00 0.00 0.00 0.01 0.01 0.01 0.02 0.02 0.02
0.00 0.00 0.00 0.00 0.00 0.00 0.00 0.00 0.00 0.00 0.00 0.00 0.00 0.00 0.00 0.00 0.00 0.00 0.00 0.00 0.00 0.00 0.00 0.00 0.00 0.00 0.00 0.00 0.00 0.00 0.00 0.00 0.00 0.00 0.00 0.00 0.01 0.01 0.02 0.02 0.02 0.02 0.01
0.00 0.00 0.00 0.00 0.00 0.00 0.00 0.00 0.00 0.00 0.00 0.00 0.00 0.00 0.00 0.00 0.00 0.00 0.00 0.00 0.00 0.00 0.00 0.00 0.00 0.00 0.00 0.00 0.00 0.00 0.00 0.00 0.00 0.00 0.00 0.00 0.01 0.02 0.02 0.01 0.01 0.00 0.00
0.02 0.02 0.01 0.00 0.00 0.00 0.00 0.00 0.00 0.00 0.00 0.00 0.00 0.00 0.00 0.00 0.00 0.00 0.00 0.00 0.00 0.00 0.00 0.00 0.00 0.00 0.00 0.00 0.00 0.00 0.00 0.00 0.00 0.00 0.00 0.01 0.01 0.01 0.01 0.00 0.00 0.00 0.00
0.02 0.02 0.01 0.00 0.00 0.00 0.00 0.00 0.00 0.00 0.00 0.00 0.00 0.00 0.00 0.00 0.00 0.00 0.00 0.00 0.00 0.00 0.00 0.00 0.00 0.00 0.00 0.00 0.00 0.00 0.00 0.00 0.00 0.00 0.00 0.00 0.01 0.01 0.00 0.00 0.00 0.00 0.00
0.00 0.01 0.00 0.00 0.00 0.00 0.00 0.00 0.00 0.00 0.00 0.00 0.00 0.00 0.00 0.00 0.00 0.00 0.00 0.00 0.00 0.00 0.00 0.00 0.00 0.00 0.00 0.00 0.00 0.00 0.00 0.00 0.00 0.00 0.00 0.00 0.00 0.00 0.00 0.00 0.00 0.00 0.00
0.00 0.00 0.00 0.00 0.00 0.00 0.00 0.00 0.00 0.00 0.00 0.00 0.00 0.00 0.00 0.00 0.00 0.00 0.00 0.00 0.00 0.00 0.00 0.00 0.00 0.00 0.00 0.00 0.00 0.00 0.00 0.00 0.00 0.00 0.00 0.00 0.00 0.00 0.00 0.00 0.00 0.00 0.00
0.00 0.00 0.01 0.00 0.00 0.00 0.00 0.00 0.00 0.00 0.00 0.00 0.00 0.00 0.00 0.00 0.00 0.00 0.00 0.00 0.00 0.00 0.00 0.00 0.00 0.00 0.00 0.00 0.00 0.00 0.00 0.00 0.00 0.00 0.00 0.00 0.00 0.00 0.00 0.00 0.00 0.00 0.00
0.00 0.01 0.01 0.01 0.01 0.01 0.00 0.00 0.01 0.00 0.00 0.00 0.00 0.00 0.00 0.00 0.00 0.00 0.00 0.00 0.00 0.00 0.00 0.00 0.00 0.00 0.00 0.00 0.00 0.00 0.00 0.00 0.00 0.00 0.00 0.00 0.00 0.00 0.00 0.00 0.00 0.00 0.00
0.01 0.01 0.02 0.03 0.03 0.02 0.01 0.02 0.01 0.02 0.01 0.00 0.00 0.00 0.00 0.00 0.00 0.00 0.00 0.00 0.00 0.00 0.00 0.00 0.00 0.00 0.00 0.00 0.00 0.00 0.00 0.00 0.00 0.00 0.00 0.00 0.00 0.00 0.00 0.00 0.00 0.00 0.00
0.00 0.00 0.00 0.02 0.02 0.02 0.02 0.03 0.03 0.03 0.02 0.01 0.01 0.00 0.00 0.00 0.00 0.00 0.00 0.00 0.00 0.00 0.00 0.00 0.00 0.00 0.00 0.00 0.00 0.00 0.00 0.00 0.00 0.00 0.00 0.00 0.00 0.00 0.00 0.00 0.00 0.00 0.00
0.00 0.00 0.00 0.00 0.01 0.02 0.05 0.05 0.04 0.04 0.04 0.03 0.02 0.01 0.00 0.00 0.00 0.00 0.00 0.00 0.00 0.00 0.00 0.00 0.00 0.00 0.00 0.00 0.00 0.00 0.00 0.00 0.00 0.00 0.00 0.00 0.00 0.00 0.00 0.00 0.00 0.00 0.00
0.00 0.00 0.00 0.00 0.00 0.02 0.06 0.07 0.05 0.04 0.03 0.04 0.02 0.01 0.01 0.01 0.01 0.01 0.00 0.00 0.00 0.00 0.00 0.00 0.00 0.00 0.00 0.00 0.00 0.00 0.00 0.00 0.00 0.00 0.00 0.00 0.00 0.00 0.00 0.00 0.00 0.00 0.00
0.00 0.00 0.00 0.00 0.00 0.01 0.04 0.04 0.03 0.02 0.02 0.02 0.03 0.04 0.04 0.04 0.04 0.03 0.01 0.01 0.00 0.00 0.00 0.00 0.00 0.00 0.00 0.00 0.00 0.00 0.00 0.00 0.00 0.00 0.00 0.00 0.00 0.00 0.00 0.00 0.00 0.00 0.00
0.00 0.00 0.00 0.00 0.00 0.00 0.01 0.01 0.01 0.03 0.03 0.04 0.06 0.06 0.06 0.06 0.07 0.05 0.03 0.02 0.01 0.01 0.00 0.00 0.00 0.00 0.00 0.00 0.00 0.00 0.00 0.00 0.00 0.00 0.00 0.00 0.00 0.00 0.00 0.00 0.00 0.00 0.00
0.00 0.00 0.00 0.00 0.00 0.00 0.00 0.02 0.04 0.06 0.06 0.05 0.03 0.02 0.03 0.06 0.08 0.06 0.06 0.05 0.03 0.02 0.01 0.01 0.00 0.00 0.00 0.00 0.00 0.00 0.00 0.00 0.00 0.00 0.00 0.00 0.00 0.00 0.00 0.00 0.00 0.00 0.00
0.00 0.00 0.00 0.00 0.00 0.00 0.00 0.02 0.02 0.01 0.01 0.01 0.01 0.02 0.04 0.08 0.11 0.10 0.08 0.07 0.05 0.03 0.02 0.01 0.01 0.00 0.00 0.00 0.00 0.00 0.00 0.00 0.00 0.00 0.00 0.00 0.00 0.00 0.00 0.00 0.00 0.00 0.00
0.00 0.00 0.00 0.00 0.00 0.00 0.00 0.00 0.01 0.01 0.00 0.01 0.02 0.03 0.04 0.06 0.10 0.11 0.10 0.08 0.06 0.05 0.04 0.02 0.01 0.01 0.00 0.00 0.00 0.00 0.00 0.00 0.00 0.00 0.00 0.00 0.00 0.00 0.00 0.00 0.00 0.00 0.00
0.00 0.00 0.00 0.00 0.00 0.00 0.00 0.00 0.00 0.00 0.00 0.01 0.01 0.03 0.03 0.04 0.06 0.08 0.09 0.09 0.08 0.08 0.06 0.04 0.02 0.01 0.01 0.00 0.00 0.00 0.00 0.00 0.00 0.00 0.00 0.00 0.00 0.00 0.00 0.00 0.00 0.00 0.00
MSLP
1013.32 1013.08 1013.00 1013.10 1013.34 1013.67 1014.06 1014.42 1014.74 1014.99 1015.18 1015.33 1015.49 1015.66 1015.87 1016.10 1016.33 1016.53 1016.68 1016.76 1016.80 1016.81 1016.83 1016.90 1017.02 1017.21 1017.44 1017.70 1017.94 1018.15 1018.31 1018.42 1018.49 1018.55 1018.60 1018.65 1018.70 1018.75 1018.77 1018.78 1018.75 1018.71 1018.68
1013.19 1013.03 1013.01 1013.14 1013.41 1013.76 1014.15 1014.53 1014.85 1015.12 1015.33 1015.51 1015.70 1015.91 1016.15 1016.40 1016.64 1016.85 1016.99 1017.08 1017.11 1017.13 1017.16 1017.24 1017.36 1017.55 1017.77 1018.00 1018.22 1018.40 1018.54 1018.64 1018.71 1018.77 1018.83 1018.89 1018.93 1018.96 1018.96 1018.93 1018.88 1018.81 1018.76
1013.00 1012.93 1012.99 1013.18 1013.48 1013.86 1014.27 1014.66 1014.99 1015.28 1015.51 1015.73 1015.94 1016.18 1016.44 1016.70 1016.94 1017.14 1017.28 1017.35 1017.39 1017.41 1017.45 1017.54 1017.67 1017.85 1018.06 1018.27 1018.45 1018.61 1018.73 1018.82 1018.90 1018.96 1019.03 1019.10 1019.14 1019.16 1019.14 1019.08 1019.00 1018.92 1018.85
1012.79 1012.83 1012.98 1013.24 1013.59 1014.01 1014.43 1014.83 1015.18 1015.47 1015.72 1015.95 1016.19 1016.44 1016.71 1016.97 1017.20 1017.38 1017.50 1017.57 1017.61 1017.63 1017.69 1017.78 1017.92 1018.10 1018.30 1018.49 1018.66 1018.79 1018.90 1018.98 1019.06 1019.14 1019.22 1019.29 1019.33 1019.34 1019.31 1019.23 1019.13 1019.03 1018.96
1012.64 1012.78 1013.02 1013.36 1013.76 1014.21 1014.64 1015.04 1015.38 1015.67 1015.92 1016.15 1016.40 1016.66 1016.92 1017.17 1017.40 1017.56 1017.67 1017.73 1017.77 1017.80 1017.87 1017.98 1018.13 1018.32 1018.51 1018.70 1018.85 1018.97 1019.07 1019.14 1019.22 1019.30 1019.38 1019.46 1019.50 1019.50 1019.46 1019.37 1019.27 1019.17 1019.10
1012.59 1012.82 1013.14 1013.54 1013.99 1014.45 1014.88 1015.26 1015.58 1015.85 1016.08 1016.31 1016.55 1016.81 1017.07 1017.33 1017.54 1017.70 1017.80 1017.86 1017.90 1017.95 1018.04 1018.17 1018.34 1018.53 1018.73 1018.91 1019.06 1019.16 1019.25 1019.32 1019.39 1019.47 1019.55 1019.62 1019.65 1019.65 1019.60 1019.52 1019.42 1019.33 1019.28
1012.65 1012.95 1013.33 1013.77 1014.24 1014.70 1015.12 1015.47 1015.75 1015.98 1016.19 1016.41 1016.64 1016.91 1017.18 1017.43 1017.65 1017.82 1017.93 1018.00 1018.05 1018.12 1018.23 1018.38 1018.56 1018.77 1018.98 1019.15 1019.29 1019.39 1019.46 1019.52 1019.58 1019.65 1019.72 1019.78 1019.81 1019.80 1019.76 1019.68 1019.59 1019.53 1019.50
1012.79 1013.13 1013.55 1014.01 1014.49 1014.93 1015.31 1015.62 1015.85 1016.05 1016.23 1016.44 1016.68 1016.96 1017.25 1017.53 1017.77 1017.95 1018.08 1018.17 1018.24 1018.33 1018.46 1018.63 1018.83 1019.05 1019.26 1019.43 1019.56 1019.64 1019.70 1019.74 1019.78 1019.84 1019.90 1019.95 1019.98 1019.97 1019.94 1019.88 1019.81 1019.77 1019.78
1012.97 1013.32 1013.75 1014.22 1014.68 1015.10 1015.44 1015.69 1015.89 1016.05 1016.22 1016.43 1016.68 1016.99 1017.31 1017.63 1017.90 1018.12 1018.28 1018.39 1018.49 1018.60 1018.74 1018.93 1019.14 1019.36 1019.57 1019.73 1019.85 1019.92 1019.96 1019.98 1020.00 1020.04 1020.09 1020.14 1020.17 1020.18 1020.16 1020.13 1020.09 1020.09 1020.12
1013.12 1013.47 1013.90 1014.36 1014.80 1015.18 1015.48 1015.70 1015.86 1016.00 1016.17 1016.39 1016.68 1017.03 1017.39 1017.75 1018.07 1018.32 1018.51 1018.65 1018.76 1018.89 1019.05 1019.24 1019.46 1019.68 1019.88 1020.04 1020.14 1020.20 1020.22 1020.22 1020.23 1020.26 1020.30 1020.36 1020.40 1020.43 1020.44 1020.43 1020.43 1020.46 1020.52
1013.21 1013.55 1013.97 1014.41 1014.82 1015.17 1015.44 1015.63 1015.78 1015.93 1016.11 1016.37 1016.69 1017.08 1017.49 1017.89 1018.24 1018.53 1018.74 1018.90 1019.03 1019.17 1019.34 1019.54 1019.76 1019.98 1020.18 1020.33 1020.42 1020.46 1020.47 1020.46 1020.46 1020.49 1020.53 1020.59 1020.66 1020.72 1020.76 1020.79 1020.82 1020.87 1020.95
1013.23 1013.55 1013.95 1014.37 1014.76 1015.09 1015.34 1015.53 1015.68 1015.85 1016.06 1016.35 1016.71 1017.14 1017.59 1018.02 1018.39 1018.70 1018.93 1019.10 1019.25 1019.40 1019.58 1019.79 1020.02 1020.24 1020.44 1020.59 1020.68 1020.72 1020.71 1020.70 1020.70 1020.72 1020.77 1020.85 1020.94 1021.03 1021.11 1021.17 1021.23 1021.30 1021.38
1013.19 1013.48 1013.85 1014.24 1014.61 1014.93 1015.18 1015.38 1015.56 1015.75 1016.00 1016.33 1016.73 1017.18 1017.65 1018.09 1018.48 1018.79 1019.03 1019.22 1019.38 1019.55 1019.75 1019.97 1020.22 1020.46 1020.67 1020.82 1020.92 1020.96 1020.96 1020.94 1020.94 1020.97 1021.03 1021.12 1021.24 1021.36 1021.47 1021.56 1021.64 1021.71 1021.79
1013.08 1013.35 1013.69 1014.05 1014.40 1014.71 1014.96 1015.18 1015.40 1015.63 1015.92 1016.28 1016.70 1017.16 1017.63 1018.07 1018.45 1018.77 1019.01 1019.22 1019.41 1019.61 1019.83 1020.09 1020.37 1020.64 1020.87 1021.05 1021.16 1021.21 1021.22 1021.21 1021.20 1021.23 1021.30 1021.41 1021.54 1021.68 1021.81 1021.92 1022.01 1022.08 1022.14
1012.93 1013.16 1013.45 1013.78 1014.11 1014.41 1014.68 1014.92 1015.17 1015.45 1015.77 1016.15 1016.58 1017.04 1017.49 1017.92 1018.29 1018.61 1018.87 1019.10 1019.33 1019.57 1019.85 1020.16 1020.48 1020.80 1021.07 1021.28 1021.42 1021.49 1021.51 1021.51 1021.51 1021.54 1021.60 1021.71 1021.84 1021.99 1022.13 1022.25 1022.34 1022.40 1022.43
1012.73 1012.90 1013.14 1013.43 1013.72 1014.01 1014.29 1014.56 1014.85 1015.16 1015.51 1015.90 1016.33 1016.77 1017.21 1017.62 1017.99 1018.31 1018.60 1018.88 1019.16 1019.47 1019.82 1020.20 1020.59 1020.96 1021.28 1021.54 1021.71 1021.81 1021.85 1021.86 1021.86 1021.88 1021.93 1022.03 1022.15 1022.29 1022.42 1022.53 1022.61 1022.66 1022.67
1012.46 1012.58 1012.75 1012.98 1013.23 1013.51 1013.79 1014.09 1014.40 1014.74 1015.10 1015.50 1015.92 1016.34 1016.76 1017.16 1017.54 1017.89 1018.23 1018.57 1018.93 1019.33 1019.76 1020.21 1020.68 1021.11 1021.49 1021.80 1022.02 1022.15 1022.22 1022.24 1022.24 1022.25 1022.29 1022.36 1022.46 1022.58 1022.69 1022.79 1022.85 1022.88 1022.87
1012.13 1012.17 1012.27 1012.43 1012.64 1012.90 1013.18 1013.49 1013.82 1014.17 1014.55 1014.94 1015.35 1015.76 1016.17 1016.58 1016.97 1017.37 1017.77 1018.19 1018.65 1019.14 1019.65 1020.19 1020.73 1021.23 1021.67 1022.03 1022.30 1022.47 1022.57 1022.61 1022.63 1022.63 1022.66 1022.70 1022.77 1022.86 1022.94 1023.02 1023.07 1023.08 1023.06
1011.73 1011.69 1011.72 1011.81 1011.98 1012.21 1012.48 1012.80 1013.14 1013.50 1013.88 1014.26 1014.66 1015.06 1015.46 1015.88 1016.32 1016.77 1017.25 1017.76 1018.30 1018.88 1019.48 1020.09 1020.69 1021.25 1021.74 1022.16 1022.48 1022.70 1022.85 1022.93 1022.97 1022.98 1023.00 1023.03 1023.07 1023.13 1023.19 1023.24 1023.28 1023.28 1023.25
1011.29 1011.18 1011.13 1011.17 1011.29 1011.48 1011.75 1012.06 1012.40 1012.76 1013.12 1013.49 1013.87 1014.26 1014.67 1015.12 1015.59 1016.11 1016.66 1017.26 1017.89 1018.54 1019.20 1019.86 1020.50 1021.10 1021.64 1022.10 1022.48 1022.77 1022.98 1023.12 1023.20 1023.25 1023.28 1023.31 1023.34 1023.38 1023.42 1023.46 1023.49 1023.49 1023.45
1010.86 1010.68 1010.57 1010.55 1010.62 1010.79 1011.03 1011.33 1011.66 1012.00 1012.34 1012.69 1013.05 1013.43 1013.84 1014.31 1014.83 1015.40 1016.02 1016.68 1017.37 1018.07 1018.77 1019.46 1020.12 1020.74 1021.31 1021.82 1022.25 1022.61 1022.90 1023.12 1023.27 1023.37 1023.44 1023.49 1023.54 1023.58 1023.62 1023.66 1023.68 1023.68 1023.66
1010.49 1010.26 1010.09 1010.02 1010.06 1010.19 1010.40 1010.67 1010.97 1011.28 1011.59 1011.90 1012.23 1012.59 1013.01 1013.49 1014.04 1014.65 1015.32 1016.03 1016.75 1017.47 1018.17 1018.86 1019.51 1020.13 1020.72 1021.26 1021.76 1022.20 1022.58 1022.89 1023.14 1023.32 1023.46 1023.56 1023.63 1023.69 1023.75 1023.80 1023.84 1023.85 1023.84
1010.23 1009.95 1009.74 1009.63 1009.62 1009.71 1009.89 1010.11 1010.36 1010.62 1010.88 1011.15 1011.44 1011.78 1012.19 1012.67 1013.24 1013.88 1014.57 1015.29 1016.02 1016.73 1017.41 1018.07 1018.70 1019.30 1019.90 1020.47 1021.03 1021.55 1022.03 1022.45 1022.80 1023.09 1023.31 1023.48 1023.60 1023.71 1023.79 1023.87 1023.93 1023.96 1023.96
1010.10 1009.78 1009.53 1009.37 1009.32 1009.36 1009.48 1009.65 1009.84 1010.04 1010.24 1010.45 1010.70 1011.01 1011.40 1011.88 1012.45 1013.10 1013.79 1014.51 1015.22 1015.90 1016.54 1017.16 1017.75 1018.33 1018.93 1019.53 1020.13 1020.73 1021.31 1021.84 1022.30 1022.69 1023.01 1023.26 1023.45 1023.60 1023.73 1023.84 1023.93 1023.99 1024.01
1010.06 1009.72 1009.43 1009.23 1009.12 1009.11 1009.16 1009.26 1009.37 1009.50 1009.63 1009.79 1009.99 1010.27 1010.64 1011.11 1011.68 1012.33 1013.02 1013.72 1014.40 1015.04 1015.65 1016.22 1016.78 1017.34 1017.93 1018.55 1019.21 1019.88 1020.54 1021.16 1021.72 1022.21 1022.61 1022.94 1023.20 1023.41 1023.59 1023.73 1023.85 1023.94 1023.98
1010.09 1009.72 1009.39 1009.14 1008.98 1008.89 1008.87 1008.89 1008.93 1008.98 1009.05 1009.16 1009.32 1009.57 1009.93 1010.39 1010.96 1011.60 1012.28 1012.97 1013.63 1014.25 1014.82 1015.36 1015.90 1016.45 1017.04 1017.69 1018.38 1019.10 1019.82 1020.52 1021.16 1021.72 1022.19 1022.58 1022.90 1023.16 1023.38 1023.56 1023.71 1023.82 1023.88
Thickness
5758 5760 5758 5755 5753 5751 5749 5747 5745 5744 5742 5740 5738 5736 5735 5734 5734 5733 5732 5732 5732 5732 5731 5730 5728 5726 5725 5723 5721 5720 5718 5717 5716 5715 5714 5714 5714 5713 5712 5711 5710 5709 5709
5760 5757 5755 5752 5749 5747 5745 5743 5741 5738 5736 5735 5733 5732 5731 5730 5729 5728 5728 5728 5728 5728 5727 5725 5723 5721 5719 5717 5716 5714 5713 5712 5711 5709 5709 5708 5708 5708 5707 5706 5705 5705 5705
5758 5754 5751 5748 5745 5743 5741 5738 5736 5734 5732 5730 5728 5727 5726 5725 5724 5723 5723 5723 5723 5723 5722 5720 5718 5716 5713 5711 5710 5708 5707 5706 5705 5704 5703 5703 5703 5702 5702 5701 5701 5701 5700
5755 5751 5747 5744 5741 5739 5737 5734 5732 5730 5727 5725 5724 5722 5721 5720 5719 5718 5718 5717 5717 5716 5715 5713 5712 5710 5708 5706 5704 5703 5702 5701 5701 5700 5699 5698 5698 5698 5698 5697 5697 5696 5695
5750 5747 5743 5740 5737 5735 5732 5730 5728 5726 5724 5721 5720 5718 5716 5715 5714 5713 5712 5711 5710 5709 5708 5707 5705 5704 5703 5701 5700 5698 5697 5697 5697 5696 5694 5694 5694 5694 5694 5693 5693 5692 5691
5745 5742 5739 5736 5733 5731 5729 5727 5724 5722 5720 5718 5715 5713 5712 5711 5709 5708 5706 5705 5704 5703 5702 5701 5700 5698 5697 5696 5695 5694 5693 5693 5692 5691 5690 5689 5689 5690 5690 5689 5688 5687 5687
5740 5737 5735 5732 5729 5727 5725 5723 5721 5719 5717 5714 5712 5709 5708 5706 5705 5703 5701 5699 5698 5697 5696 5695 5694 5693 5692 5691 5690 5689 5688 5688 5687 5686 5684 5684 5684 5685 5684 5684 5683 5682 5680
5735 5733 5730 5727 5725 5723 5721 5719 5718 5716 5713 5711 5708 5706 5704 5702 5700 5698 5696 5695 5694 5692 5691 5690 5689 5688 5686 5685 5684 5684 5683 5683 5682 5680 5679 5679 5679 5679 5678 5677 5676 5674 5673
5730 5728 5726 5724 5721 5719 5717 5716 5714 5712 5709 5707 5704 5702 5700 5698 5696 5694 5692 5690 5689 5688 5687 5685 5684 5682 5681 5680 5679 5679 5678 5677 5676 5675 5674 5673 5673 5672 5671 5669 5668 5666 5665
5724 5722 5721 5720 5718 5716 5714 5712 5709 5707 5705 5703 5700 5698 5696 5694 5691 5689 5687 5686 5684 5683 5682 5680 5678 5676 5675 5675 5674 5673 5672 5671 5670 5669 5668 5667 5667 5665 5663 5661 5660 5658 5657
5717 5717 5716 5715 5714 5712 5710 5708 5705 5703 5700 5698 5696 5694 5691 5689 5687 5685 5683 5681 5679 5678 5676 5675 5673 5671 5669 5668 5668 5667 5666 5665 5664 5663 5662 5661 5659 5657 5655 5653 5651 5650 5648
5711 5711 5712 5711 5709 5708 5706 5704 5701 5698 5696 5694 5692 5689 5687 5685 5683 5681 5678 5676 5674 5672 5670 5669 5667 5665 5663 5662 5661 5660 5659 5658 5657 5655 5654 5653 5651 5649 5646 5644 5642 5641 5640
5709 5708 5709 5707 5705 5703 5702 5700 5698 5695 5693 5690 5688 5685 5683 5680 5678 5676 5673 5671 5668 5666 5664 5662 5660 5658 5657 5656 5654 5653 5652 5651 5649 5648 5647 5645 5642 5640 5637 5635 5633 5632 5631
5705 5705 5704 5704 5701 5699 5697 5696 5694 5692 5689 5687 5685 5682 5679 5675 5673 5671 5668 5666 5663 5661 5658 5656 5654 5652 5651 5649 5648 5646 5645 5643 5642 5641 5639 5637 5634 5631 5628 5626 5624 5623 5622
5701 5701 5701 5699 5698 5696 5693 5692 5690 5688 5686 5684 5682 5679 5676 5672 5669 5667 5664 5661 5659 5656 5654 5651 5649 5647 5645 5643 5641 5640 5638 5636 5634 5633 5630 5628 5625 5623 5620 5618 5616 5615 5614
5698 5698 5697 5696 5695 5692 5691 5689 5687 5685 5683 5680 5679 5676 5673 5670 5666 5663 5660 5657 5654 5652 5649 5646 5643 5641 5639 5637 5634 5632 5630 5628 5626 5624 5622 5619 5616 5614 5612 5610 5608 5606 5605
5695 5695 5694 5694 5692 5690 5689 5686 5684 5682 5680 5678 5676 5674 5671 5668 5664 5660 5656 5653 5650 5647 5644 5641 5637 5635 5632 5630 5627 5625 5622 5620 5618 5616 5613 5610 5608 5605 5603 5601 5599 5598 5596
5690 5691 5692 5691 5690 5688 5687 5685 5682 5680 5677 5676 5674 5672 5669 5666 5662 5657 5653 5650 5647 5643 5639 5636 5632 5627 5625 5622 5620 5617 5615 5612 5610 5607 5605 5602 5599 5597 5595 5593 5591 5589 5588
5685 5686 5687 5688 5688 5688 5686 5683 5681 5678 5675 5674 5672 5670 5668 5664 5660 5656 5652 5647 5643 5639 5635 5631 5626 5623 5618 5615 5612 5609 5607 5604 5602 5599 5596 5593 5591 5589 5586 5584 5583 5581 5579
5680 5681 5682 5684 5685 5686 5684 5680 5677 5674 5673 5671 5670 5669 5666 5662 5658 5655 5650 5645 5640 5635 5630 5626 5621 5617 5612 5609 5606 5601 5598 5596 5594 5591 5589 5586 5583 5581 5578 5576 5575 5573 5571
5674 5675 5677 5678 5680 5681 5679 5677 5674 5673 5673 5670 5669 5667 5664 5661 5657 5653 5648 5642 5637 5633 5629 5624 5617 5611 5605 5602 5597 5592 5589 5588 5586 5584 5581 5579 5576 5573 5571 5568 5566 5564 5563
5669 5671 5672 5674 5675 5676 5677 5677 5677 5675 5673 5671 5668 5664 5662 5660 5655 5650 5646 5640 5635 5630 5624 5620 5616 5607 5601 5597 5594 5587 5582 5579 5578 5577 5574 5572 5570 5567 5563 5561 5558 5556 5554
5663 5666 5669 5669 5670 5671 5672 5671 5669 5667 5665 5663 5662 5661 5660 5657 5652 5648 5644 5639 5633 5629 5624 5619 5616 5609 5599 5592 5591 5588 5580 5577 5571 5567 5565 5564 5562 5559 5556 5553 5550 5547 5545
5656 5659 5661 5663 5664 5664 5664 5664 5663 5662 5661 5663 5662 5660 5656 5652 5649 5645 5640 5636 5632 5628 5623 5619 5614 5609 5601 5591 5584 5582 5580 5577 5568 5560 5557 5554 5553 5550 5547 5544 5541 5538 5535
5645 5647 5650 5652 5654 5655 5656 5657 5657 5657 5658 5657 5655 5653 5650 5647 5644 5641 5638 5633 5629 5625 5622 5616 5610 5606 5601 5594 5585 5576 5571 5565 5563 5559 5552 5546 5543 5541 5538 5535 5531 5528 5525
5634 5635 5637 5639 5642 5644 5645 5646 5647 5649 5649 5646 5645 5644 5642 5639 5636 5635 5632 5629 5626 5621 5617 5612 5607 5602 5598 5592 5585 5579 5572 5565 5557 5553 5547 5539 5534 5531 5527 5524 5521 5517 5513